KC8P Weather Reports


Display with metric or nautical units.
time (UTC)temp
F
wind
direction
speed
MPH
gust
MPH
rain 1hr
in
rain 24hr
in
rain mn
in
humidity
%
barometer
mb
20260503055112 38 207 2.0 6.0 0.00 0.00 0.00 68 1014.9
20260503055005 39 113 1.0 6.0 0.00 0.00 0.00 67 1014.6
20260503054900 39 269 2.0 6.0 0.00 0.00 0.00 67 1014.9
20260503054754 39 233 2.0 6.0 0.00 0.00 0.00 67 1014.9
20260503054648 39 210 1.0 6.0 0.00 0.00 0.00 67 1014.9
20260503054622 39 214 3.0 6.0 0.00 0.00 0.00 67 1014.9
20260503054543 39 220 2.0 6.0 0.00 0.00 0.00 67 1014.9
20260503054439 39 228 1.0 4.0 0.00 0.00 0.00 67 1014.9
20260503054335 38 228 2.0 4.0 0.00 0.00 0.00 67 1014.9
20260503054226 38 221 2.0 4.0 0.00 0.00 0.00 67 1014.9
20260503054121 38 197 2.0 4.0 0.00 0.00 0.00 67 1014.9
20260503054016 38 169 3.0 4.0 0.00 0.00 0.00 67 1014.9
20260503053910 38 232 3.0 4.0 0.00 0.00 0.00 67 1014.9
20260503053830 38 219 1.0 3.0 0.00 0.00 0.00 68 1014.9
20260503053703 38 222 2.0 4.0 0.00 0.00 0.00 69 1014.9
20260503053612 38 218 1.0 4.0 0.00 0.00 0.00 68 1014.9
20260503053555 38 220 2.0 4.0 0.00 0.00 0.00 68 1014.9
20260503053448 38 217 1.0 4.0 0.00 0.00 0.00 68 1014.9
20260503053343 38 218 1.0 4.0 0.00 0.00 0.00 68 1014.9
20260503053303 38 211 2.0 4.0 0.00 0.00 0.00 68 1014.9
20260503053133 38 236 1.0 4.0 0.00 0.00 0.00 68 1014.9
20260503053106 38 196 2.0 4.0 0.00 0.00 0.00 68 1014.9
20260503053025 38 221 1.0 4.0 0.00 0.00 0.00 68 1014.9
20260503052919 38 205 1.0 4.0 0.00 0.00 0.00 68 1014.9
20260503052815 38 226 2.0 4.0 0.00 0.00 0.00 68 1014.9
20260503052709 38 213 2.0 3.0 0.00 0.00 0.00 68 1014.9
20260503052604 38 209 2.0 3.0 0.00 0.00 0.00 68 1014.9
20260503052456 38 224 1.0 3.0 0.00 0.00 0.00 68 1014.9
20260503052351 38 197 2.0 4.0 0.00 0.00 0.00 68 1014.9
20260503052245 38 191 2.0 4.0 0.00 0.00 0.00 67 1015.3
20260503052141 38 223 2.0 4.0 0.00 0.00 0.00 68 1014.9
20260503052052 38 213 1.0 4.0 0.00 0.00 0.00 69 1015.3
20260503052034 38 230 2.0 4.0 0.00 0.00 0.00 69 1014.9
20260503051929 38 209 0.0 4.0 0.00 0.00 0.00 68 1014.9
20260503051824 38 214 2.0 4.0 0.00 0.00 0.00 68 1014.9
20260503051718 38 202 1.0 4.0 0.00 0.00 0.00 68 1014.9
20260503051613 38 198 1.0 6.0 0.00 0.00 0.00 68 1014.9
20260503051546 38 216 1.0 6.0 0.00 0.00 0.00 67 1014.9
20260503051507 38 218 3.0 6.0 0.00 0.00 0.00 68 1015.3
20260503051402 38 224 3.0 6.0 0.00 0.00 0.00 68 1015.3
20260503051257 38 222 1.0 6.0 0.00 0.00 0.00 68 1014.9
20260503051151 38 212 0.0 6.0 0.00 0.00 0.00 69 1014.9
20260503051046 38 209 2.0 6.0 0.00 0.00 0.00 68 1015.3
20260503050940 38 220 0.0 6.0 0.00 0.00 0.00 68 1014.9
20260503050834 38 200 1.0 6.0 0.00 0.00 0.00 68 1014.9
20260503050729 38 196 3.0 6.0 0.00 0.00 0.00 67 1015.3
20260503050624 38 220 2.0 3.0 0.00 0.00 0.00 69 1014.9
20260503050537 38 223 1.0 3.0 0.00 0.00 0.00 68 1014.9
20260503050517 38 209 2.0 3.0 0.00 0.00 0.00 68 1015.3
20260503050412 38 222 1.0 3.0 0.00 0.00 0.00 68 1015.3
20260503050306 38 233 2.0 3.0 0.00 0.00 0.00 68 1015.3
20260503050201 38 173 0.0 3.0 0.00 0.00 0.00 68 1015.3
20260503050108 38 197 0.0 3.0 0.00 0.00 0.00 68 1014.9
20260503050029 38 221 0.0 3.0 0.00 0.00 0.00 68 1015.3
20260503045949 38 219 2.0 3.0 0.00 0.00 0.00 68 1015.3
20260503045845 39 218 2.0 3.0 0.00 0.00 0.00 68 1014.9
20260503045738 39 196 2.0 3.0 0.00 0.00 0.00 67 1015.3
20260503045634 39 210 1.0 3.0 0.00 0.00 0.00 67 1015.3
20260503045527 39 226 3.0 3.0 0.00 0.00 0.00 68 1015.3
20260503045422 38 224 1.0 3.0 0.00 0.00 0.00 67 1015.3
20260503045317 38 215 2.0 3.0 0.00 0.00 0.00 68 1015.3
20260503045211 38 208 2.0 3.0 0.00 0.00 0.00 68 1015.3
20260503045105 38 207 1.0 3.0 0.00 0.00 0.00 69 1015.3
20260503045016 38 215 0.0 3.0 0.00 0.00 0.00 69 1015.3
20260503045000 38 227 1.0 3.0 0.00 0.00 0.00 68 1015.3
20260503044854 38 216 1.0 3.0 0.00 0.00 0.00 68 1015.3
20260503044748 38 210 0.0 3.0 0.00 0.00 0.00 68 1015.3
20260503044644 38 211 2.0 3.0 0.00 0.00 0.00 67 1015.3
20260503044538 38 214 2.0 3.0 0.00 0.00 0.00 68 1015.3
20260503044511 38 220 2.0 3.0 0.00 0.00 0.00 68 1015.3
20260503044432 38 214 0.0 2.0 0.00 0.00 0.00 67 1015.3
20260503044326 38 187 0.0 2.0 0.00 0.00 0.00 67 1015.3
20260503044222 38 193 0.0 2.0 0.00 0.00 0.00 68 1015.3
20260503044117 38 197 0.0 2.0 0.00 0.00 0.00 68 1015.3
20260503044013 38 212 0.0 2.0 0.00 0.00 0.00 68 1015.3
20260503043905 38 218 0.0 2.0 0.00 0.00 0.00 68 1015.3
20260503043800 38 202 0.0 3.0 0.00 0.00 0.00 67 1015.3
20260503043654 39 197 0.0 3.0 0.00 0.00 0.00 67 1015.3
20260503043549 39 202 0.0 3.0 0.00 0.00 0.00 67 1015.3
20260503043500 39 204 2.0 3.0 0.00 0.00 0.00 67 1015.3
20260503043443 39 211 2.0 3.0 0.00 0.00 0.00 67 1015.3
20260503043338 39 208 0.0 3.0 0.00 0.00 0.00 67 1015.3
20260503043233 39 208 2.0 3.0 0.00 0.00 0.00 67 1015.3
20260503043128 39 209 1.0 3.0 0.00 0.00 0.00 67 1015.3
20260503043022 39 201 0.0 3.0 0.00 0.00 0.00 67 1015.3
20260503042956 39 200 0.0 3.0 0.00 0.00 0.00 67 1015.3
20260503042917 39 199 0.0 3.0 0.00 0.00 0.00 67 1015.3
20260503042812 39 184 3.0 3.0 0.00 0.00 0.00 67 1015.3
20260503042705 39 215 1.0 2.0 0.00 0.00 0.00 66 1015.3
20260503042559 39 200 2.0 2.0 0.00 0.00 0.00 67 1015.3
20260503042455 39 216 1.0 2.0 0.00 0.00 0.00 67 1015.3
20260503042349 39 194 2.0 2.0 0.00 0.00 0.00 66 1015.3
20260503042243 39 204 1.0 3.0 0.00 0.00 0.00 66 1014.9
20260503042138 39 203 2.0 3.0 0.00 0.00 0.00 66 1015.3
20260503042033 39 198 1.0 3.0 0.00 0.00 0.00 66 1015.3
20260503041945 39 208 1.0 3.0 0.00 0.00 0.00 66 1015.3
20260503041927 39 211 1.0 3.0 0.00 0.00 0.00 66 1015.3
20260503041823 39 206 1.0 3.0 0.00 0.00 0.00 66 1015.3
20260503041717 39 202 1.0 3.0 0.00 0.00 0.00 66 1015.3
20260503041611 39 212 1.0 3.0 0.00 0.00 0.00 66 1015.3
20260503041505 39 210 1.0 3.0 0.00 0.00 0.00 66 1015.3
20260503041439 39 208 2.0 3.0 0.00 0.00 0.00 66 1015.3
20260503041359 39 205 1.0 3.0 0.00 0.00 0.00 65 1015.3
20260503041254 39 203 1.0 3.0 0.00 0.00 0.00 66 1015.3
20260503041149 39 195 2.0 3.0 0.00 0.00 0.00 65 1015.3
20260503041043 39 218 1.0 3.0 0.00 0.00 0.00 66 1015.3
20260503040937 39 205 1.0 3.0 0.00 0.00 0.00 66 1015.3
20260503040833 39 205 2.0 3.0 0.00 0.00 0.00 66 1015.3
20260503040727 39 211 2.0 3.0 0.00 0.00 0.00 65 1015.3
20260503040621 39 189 2.0 3.0 0.00 0.00 0.00 66 1015.3
20260503040516 39 204 2.0 3.0 0.00 0.00 0.00 66 1015.3
20260503040428 39 205 1.0 3.0 0.00 0.00 0.00 66 1015.3
20260503040410 39 208 1.0 3.0 0.00 0.00 0.00 66 1015.3
20260503040305 39 201 2.0 3.0 0.00 0.00 0.00 65 1015.3
20260503040200 39 204 2.0 3.0 0.00 0.00 0.00 66 1015.3
20260503040101 39 181 2.0 3.0 0.00 0.00 0.00 66 1015.3
20260503035948 39 198 2.0 3.0 0.00 0.00 0.00 66 1015.3
20260503035922 39 202 2.0 3.0 0.00 0.00 0.00 66 1015.3
20260503035843 39 216 2.0 3.0 0.00 0.00 0.00 65 1015.3
20260503035738 40 201 1.0 3.0 0.00 0.00 0.00 65 1015.3
20260503035632 40 208 1.0 3.0 0.00 0.00 0.00 65 1015.6
20260503035526 40 214 2.0 3.0 0.00 0.00 0.00 65 1015.3
20260503035421 39 203 1.0 3.0 0.00 0.00 0.00 65 1015.3
20260503035316 39 198 2.0 3.0 0.00 0.00 0.00 65 1015.6
20260503035211 40 205 2.0 3.0 0.00 0.00 0.00 65 1015.3
20260503035105 40 197 2.0 3.0 0.00 0.00 0.00 64 1015.3
20260503034958 40 200 2.0 3.0 0.00 0.00 0.00 64 1015.3
20260503034910 40 210 2.0 3.0 0.00 0.00 0.00 64 1015.3
20260503034853 39 198 2.0 3.0 0.00 0.00 0.00 64 1015.3
20260503034747 39 206 2.0 3.0 0.00 0.00 0.00 64 1015.3
20260503034642 39 204 0.0 3.0 0.00 0.00 0.00 65 1015.3
20260503034536 40 207 0.0 3.0 0.00 0.00 0.00 64 1015.3
20260503034431 40 212 1.0 3.0 0.00 0.00 0.00 65 1015.3
20260503034404 40 210 2.0 3.0 0.00 0.00 0.00 64 1015.3
20260503034325 40 207 2.0 3.0 0.00 0.00 0.00 64 1015.3
20260503034220 39 195 2.0 3.0 0.00 0.00 0.00 64 1015.3
20260503034115 39 191 2.0 2.0 0.00 0.00 0.00 65 1015.3
20260503034009 39 205 1.0 2.0 0.00 0.00 0.00 65 1015.3
20260503033904 39 215 0.0 0.0 0.00 0.00 0.00 65 1015.3
20260503033759 39 204 0.0 2.0 0.00 0.00 0.00 65 1015.3
20260503033653 39 208 0.0 2.0 0.00 0.00 0.00 64 1015.3
20260503033547 39 207 0.0 2.0 0.00 0.00 0.00 64 1015.3
20260503033442 39 211 0.0 2.0 0.00 0.00 0.00 65 1015.6
20260503033354 40 214 0.0 2.0 0.00 0.00 0.00 65 1015.6
20260503033336 40 211 0.0 2.0 0.00 0.00 0.00 64 1015.6
20260503033231 40 201 0.0 3.0 0.00 0.00 0.00 64 1015.3
20260503033125 39 206 0.0 3.0 0.00 0.00 0.00 64 1015.3
20260503033019 39 208 0.0 3.0 0.00 0.00 0.00 65 1015.6
20260503032927 39 201 0.0 3.0 0.00 0.00 0.00 64 1015.3
20260503032848 39 207 0.0 3.0 0.00 0.00 0.00 64 1015.3
20260503032809 39 193 2.0 3.0 0.00 0.00 0.00 64 1015.3
20260503032704 39 217 2.0 3.0 0.00 0.00 0.00 65 1015.3
20260503032558 39 213 2.0 3.0 0.00 0.00 0.00 64 1015.6
20260503032452 40 216 2.0 3.0 0.00 0.00 0.00 64 1015.6
20260503032348 40 208 2.0 3.0 0.00 0.00 0.00 64 1015.6
20260503032243 40 191 3.0 3.0 0.00 0.00 0.00 64 1015.6
20260503032138 40 215 2.0 3.0 0.00 0.00 0.00 64 1015.6
20260503032032 40 212 1.0 3.0 0.00 0.00 0.00 64 1015.3
20260503031926 40 220 1.0 3.0 0.00 0.00 0.00 64 1015.6
20260503031838 40 214 2.0 3.0 0.00 0.00 0.00 64 1015.6
20260503031821 40 215 1.0 3.0 0.00 0.00 0.00 64 1015.3
20260503031716 39 218 2.0 2.0 0.00 0.00 0.00 64 1015.3
20260503031610 39 211 2.0 2.0 0.00 0.00 0.00 64 1015.6
20260503031504 39 229 2.0 2.0 0.00 0.00 0.00 64 1015.6
20260503031400 40 215 1.0 2.0 0.00 0.00 0.00 64 1015.6
20260503031333 40 224 1.0 2.0 0.00 0.00 0.00 64 1015.6
20260503031255 40 215 1.0 2.0 0.00 0.00 0.00 64 1015.6
20260503031149 40 213 2.0 2.0 0.00 0.00 0.00 64 1015.6
20260503031043 40 215 1.0 2.0 0.00 0.00 0.00 64 1015.6
20260503030938 40 211 2.0 2.0 0.00 0.00 0.00 64 1015.3
20260503030832 40 202 1.0 2.0 0.00 0.00 0.00 64 1015.6
20260503030727 40 218 0.0 2.0 0.00 0.00 0.00 64 1015.6
20260503030621 40 217 2.0 2.0 0.00 0.00 0.00 64 1015.6
20260503030516 40 225 1.0 2.0 0.00 0.00 0.00 64 1015.6
20260503030411 40 204 0.0 1.0 0.00 0.00 0.00 64 1015.6
20260503030323 40 230 0.0 1.0 0.00 0.00 0.00 64 1015.3
20260503030306 40 224 0.0 1.0 0.00 0.00 0.00 64 1015.3
20260503030200 40 217 1.0 1.0 0.00 0.00 0.00 64 1015.3
20260503030107 40 217 0.0 2.0 0.00 0.00 0.00 63 1015.3
20260503025950 40 206 0.0 3.0 0.00 0.00 0.00 63 1015.3
20260503025844 40 191 0.0 3.0 0.00 0.00 0.00 63 1015.6
20260503025817 40 191 0.0 3.0 0.00 0.00 0.00 63 1015.3
20260503025739 40 206 0.0 3.0 0.00 0.00 0.00 63 1015.3
20260503025633 40 205 0.0 3.0 0.00 0.00 0.00 63 1015.6
20260503025527 40 213 0.0 3.0 0.00 0.00 0.00 63 1015.6
20260503025422 40 217 0.0 3.0 0.00 0.00 0.00 63 1015.6
20260503025316 40 215 1.0 3.0 0.00 0.00 0.00 63 1015.6
20260503025211 40 206 1.0 3.0 0.00 0.00 0.00 63 1015.6
20260503025106 40 206 0.0 3.0 0.00 0.00 0.00 63 1015.6
20260503025000 40 190 0.0 3.0 0.00 0.00 0.00 63 1015.6
20260503024855 40 209 0.0 3.0 0.00 0.00 0.00 62 1015.3
20260503024806 40 206 1.0 4.0 0.00 0.00 0.00 62 1015.3
20260503024749 40 202 1.0 4.0 0.00 0.00 0.00 62 1015.3
20260503024643 40 214 1.0 4.0 0.00 0.00 0.00 62 1015.6
20260503024538 40 209 1.0 4.0 0.00 0.00 0.00 62 1015.6
20260503024433 40 220 1.0 4.0 0.00 0.00 0.00 62 1015.9
20260503024327 40 211 1.0 4.0 0.00 0.00 0.00 62 1015.6
20260503024301 40 212 2.0 4.0 0.00 0.00 0.00 62 1015.6
20260503024223 40 207 1.0 4.0 0.00 0.00 0.00 62 1015.6
20260503024117 40 183 3.0 4.0 0.00 0.00 0.00 62 1015.6
20260503024011 40 213 0.0 4.0 0.00 0.00 0.00 62 1015.6
20260503023906 40 209 2.0 4.0 0.00 0.00 0.00 62 1015.6
20260503023800 40 164 2.0 3.0 0.00 0.00 0.00 62 1015.6
20260503023656 40 191 1.0 3.0 0.00 0.00 0.00 63 1015.6
20260503023550 40 197 2.0 3.0 0.00 0.00 0.00 62 1015.6
20260503023444 40 198 3.0 3.0 0.00 0.00 0.00 62 1015.6
20260503023339 40 199 1.0 2.0 0.00 0.00 0.00 62 1015.6
20260503023250 40 191 2.0 2.0 0.00 0.00 0.00 62 1015.6
20260503023233 40 194 2.0 2.0 0.00 0.00 0.00 62 1015.6
20260503023128 40 184 0.0 2.0 0.00 0.00 0.00 61 1015.6
20260503023023 40 200 0.0 2.0 0.00 0.00 0.00 61 1015.9
20260503022917 40 187 0.0 2.0 0.00 0.00 0.00 61 1015.6
20260503022812 40 214 0.0 2.0 0.00 0.00 0.00 61 1015.9
20260503022746 40 204 0.0 2.0 0.00 0.00 0.00 61 1015.9
20260503022706 40 205 0.0 2.0 0.00 0.00 0.00 61 1015.6
20260503022601 40 205 0.0 2.0 0.00 0.00 0.00 61 1015.6
20260503022455 40 205 0.0 2.0 0.00 0.00 0.00 61 1015.6
20260503022350 40 200 1.0 2.0 0.00 0.00 0.00 61 1015.6
20260503022244 40 187 0.0 0.0 0.00 0.00 0.00 61 1015.9
20260503022139 40 200 0.0 0.0 0.00 0.00 0.00 61 1015.9
20260503022034 40 199 0.0 0.0 0.00 0.00 0.00 60 1015.6
20260503021928 40 198 0.0 0.0 0.00 0.00 0.00 61 1015.9
20260503021823 40 208 0.0 0.0 0.00 0.00 0.00 61 1015.9
20260503021734 40 204 0.0 0.0 0.00 0.00 0.00 61 1015.9
20260503021717 40 193 0.0 0.0 0.00 0.00 0.00 61 1015.9
20260503021611 40 205 0.0 0.0 0.00 0.00 0.00 61 1015.9
20260503021507 40 198 0.0 0.0 0.00 0.00 0.00 61 1015.6
20260503021401 40 199 0.0 0.0 0.00 0.00 0.00 61 1015.6
20260503021255 40 189 0.0 0.0 0.00 0.00 0.00 61 1015.9
20260503021229 40 201 0.0 0.0 0.00 0.00 0.00 61 1015.9
20260503021150 40 195 0.0 0.0 0.00 0.00 0.00 61 1015.9
20260503021043 40 200 0.0 0.0 0.00 0.00 0.00 61 1015.9
20260503020937 40 188 0.0 0.0 0.00 0.00 0.00 61 1015.6
20260503020832 40 191 0.0 0.0 0.00 0.00 0.00 61 1015.6
20260503020726 40 199 0.0 0.0 0.00 0.00 0.00 60 1015.9
20260503020621 40 196 0.0 0.0 0.00 0.00 0.00 60 1015.9
20260503020516 40 200 0.0 0.0 0.00 0.00 0.00 60 1015.6
20260503020410 40 199 0.0 0.0 0.00 0.00 0.00 60 1015.9
20260503020305 40 190 0.0 0.0 0.00 0.00 0.00 60 1015.6
20260503020216 40 191 0.0 0.0 0.00 0.00 0.00 60 1015.9
20260503020159 40 199 0.0 0.0 0.00 0.00 0.00 60 1015.9
20260503020107 40 206 0.0 0.0 0.00 0.00 0.00 60 1015.6
20260503015949 40 205 0.0 0.0 0.00 0.00 0.00 60 1015.6
20260503015843 40 200 0.0 0.0 0.00 0.00 0.00 61 1015.9
20260503015738 40 195 0.0 0.0 0.00 0.00 0.00 62 1015.9
20260503015712 40 198 0.0 0.0 0.00 0.00 0.00 62 1015.9
20260503015632 40 197 0.0 0.0 0.00 0.00 0.00 62 1015.9
20260503015527 40 200 0.0 0.0 0.00 0.00 0.00 62 1015.6
20260503015422 40 200 0.0 0.0 0.00 0.00 0.00 61 1015.6
20260503015316 40 198 0.0 0.0 0.00 0.00 0.00 61 1015.6
20260503015209 40 193 0.0 0.0 0.00 0.00 0.00 61 1015.6
20260503015105 40 197 0.0 0.0 0.00 0.00 0.00 61 1015.6
20260503014959 40 189 0.0 0.0 0.00 0.00 0.00 61 1015.6
20260503014853 40 187 0.0 0.0 0.00 0.00 0.00 61 1015.6
20260503014749 40 190 0.0 0.0 0.00 0.00 0.00 61 1015.9
20260503014700 40 189 0.0 0.0 0.00 0.00 0.00 60 1015.9
20260503014643 40 188 0.0 0.0 0.00 0.00 0.00 60 1015.9
20260503014538 40 187 0.0 0.0 0.00 0.00 0.00 60 1015.6
20260503014432 41 199 0.0 0.0 0.00 0.00 0.00 59 1015.6
20260503014326 40 199 0.0 0.0 0.00 0.00 0.00 59 1015.9
20260503014221 40 202 0.0 0.0 0.00 0.00 0.00 59 1015.6
20260503014154 40 199 0.0 0.0 0.00 0.00 0.00 59 1015.6
20260503014116 40 199 0.0 0.0 0.00 0.00 0.00 59 1015.9
20260503014011 41 202 0.0 0.0 0.00 0.00 0.00 59 1015.6
20260503013905 41 199 0.0 0.0 0.00 0.00 0.00 59 1015.6
20260503013759 41 198 0.0 0.0 0.00 0.00 0.00 59 1015.9
20260503013654 41 199 0.0 0.0 0.00 0.00 0.00 59 1015.6
20260503013548 40 203 0.0 0.0 0.00 0.00 0.00 59 1015.6
20260503013443 40 205 0.0 0.0 0.00 0.00 0.00 59 1015.6
20260503013338 40 204 0.0 0.0 0.00 0.00 0.00 60 1015.6
20260503013305 40 203 0.0 0.0 0.00 0.00 0.00 60 1015.6
20260503013144 40 203 0.0 0.0 0.00 0.00 0.00 59 1015.6
20260503013127 40 200 0.0 0.0 0.00 0.00 0.00 59 1015.9
20260503013021 40 199 0.0 0.0 0.00 0.00 0.00 59 1015.6
20260503012915 40 203 0.0 1.0 0.00 0.00 0.00 59 1015.6
20260503012809 40 199 0.0 1.0 0.00 0.00 0.00 59 1015.9
20260503012703 40 199 0.0 1.0 0.00 0.00 0.00 59 1015.6
20260503012637 40 200 0.0 1.0 0.00 0.00 0.00 60 1015.6
20260503012558 40 203 0.0 1.0 0.00 0.00 0.00 60 1015.6
20260503012452 40 205 0.0 1.0 0.00 0.00 0.00 60 1015.6
20260503012346 40 203 0.0 1.0 0.00 0.00 0.00 60 1015.6
20260503012241 40 203 0.0 1.0 0.00 0.00 0.00 60 1015.6
20260503012135 40 200 0.0 1.0 0.00 0.00 0.00 60 1015.6
20260503012043 40 195 0.0 1.0 0.00 0.00 0.00 59 1015.6
20260503011924 40 200 1.0 1.0 0.00 0.00 0.00 61 1015.6
20260503011830 40 199 0.0 0.0 0.00 0.00 0.00 61 1015.6
20260503011713 40 199 0.0 0.0 0.00 0.00 0.00 61 1015.6
20260503011606 40 199 0.0 0.0 0.00 0.00 0.00 61 1015.6
20260503011500 40 199 0.0 0.0 0.00 0.00 0.00 62 1015.6
20260503011356 40 199 0.0 0.0 0.00 0.00 0.00 61 1015.6
20260503011250 40 199 0.0 0.0 0.00 0.00 0.00 60 1015.9
20260503011117 40 203 0.0 0.0 0.00 0.00 0.00 58 1015.6
20260503011037 40 203 0.0 0.0 0.00 0.00 0.00 58 1015.6
20260503010933 40 203 0.0 0.0 0.00 0.00 0.00 58 1015.9
20260503010826 40 205 0.0 0.0 0.00 0.00 0.00 58 1015.6
20260503010720 40 197 0.0 0.0 0.00 0.00 0.00 58 1015.9
20260503010615 41 197 0.0 0.0 0.00 0.00 0.00 58 1015.9
20260503010509 41 197 0.0 0.0 0.00 0.00 0.00 59 1015.6
20260503010417 41 197 0.0 0.0 0.00 0.00 0.00 59 1015.9
20260503010258 41 197 0.0 0.0 0.00 0.00 0.00 59 1015.6
20260503010152 41 197 0.0 0.0 0.00 0.00 0.00 57 1015.6
20260503010104 41 197 0.0 0.0 0.00 0.00 0.00 58 1015.6
20260503010059 41 197 0.0 0.0 0.00 0.00 0.00 58 1015.6
20260503005941 41 197 0.0 0.0 0.00 0.00 0.00 59 1015.6
20260503005836 41 193 0.0 0.0 0.00 0.00 0.00 59 1015.6
20260503005730 41 193 0.0 0.0 0.00 0.00 0.00 59 1015.6
20260503005624 41 201 0.0 0.0 0.00 0.00 0.00 60 1015.9
20260503005557 41 201 0.0 0.0 0.00 0.00 0.00 60 1015.9
20260503005519 41 201 0.0 0.0 0.00 0.00 0.00 60 1015.6
20260503005413 42 201 0.0 0.0 0.00 0.00 0.00 59 1015.6
20260503005307 42 195 0.0 0.0 0.00 0.00 0.00 59 1015.6
20260503005202 42 195 0.0 0.0 0.00 0.00 0.00 59 1015.6
20260503005054 42 201 0.0 0.0 0.00 0.00 0.00 59 1015.6
20260503004949 42 193 0.0 0.0 0.00 0.00 0.00 58 1015.6
20260503004843 42 192 0.0 0.0 0.00 0.00 0.00 57 1015.6
20260503004818 42 201 0.0 0.0 0.00 0.00 0.00 55 1015.6
20260503004813 42 193 0.0 0.0 0.00 0.00 0.00 57 1015.6
20260503004804 42 193 0.0 0.0 0.00 0.00 0.00 56 1015.6
20260503004526 42 201 0.0 0.0 0.00 0.00 0.00 56 1015.6
20260503004421 42 195 0.0 0.0 0.00 0.00 0.00 57 1015.3
20260503004320 43 198 0.0 1.0 0.00 0.00 0.00 56 1015.3
20260503004316 42 195 0.0 1.0 0.00 0.00 0.00 56 1015.3
20260503004308 43 201 0.0 1.0 0.00 0.00 0.00 56 1015.3
20260503004259 43 201 0.0 1.0 0.00 0.00 0.00 56 1015.3
20260503003957 43 198 0.0 1.0 0.00 0.00 0.00 56 1015.6
20260503003852 43 200 0.0 1.0 0.00 0.00 0.00 55 1015.3
20260503003747 43 196 0.0 1.0 0.00 0.00 0.00 55 1015.6
20260503003641 43 198 0.0 1.0 0.00 0.00 0.00 54 1015.6
20260503003535 43 198 0.0 1.0 0.00 0.00 0.00 54 1015.6
20260503003430 44 198 0.0 1.0 0.00 0.00 0.00 53 1015.3
20260503003324 44 203 0.0 1.0 0.00 0.00 0.00 52 1015.6
20260503003219 44 207 0.0 1.0 0.00 0.00 0.00 52 1015.3
20260503003112 44 207 0.0 1.0 0.00 0.00 0.00 52 1015.3
20260503003024 44 207 0.0 1.0 0.00 0.00 0.00 52 1015.3
20260503003007 44 207 0.0 1.0 0.00 0.00 0.00 52 1015.3
20260503002901 44 208 0.0 3.0 0.00 0.00 0.00 52 1015.6
20260503002755 44 208 1.0 3.0 0.00 0.00 0.00 52 1015.3
20260503002652 44 207 0.0 3.0 0.00 0.00 0.00 52 1015.6
20260503002545 44 207 1.0 3.0 0.00 0.00 0.00 52 1015.3
20260503002517 44 195 0.0 3.0 0.00 0.00 0.00 52 1015.3
20260503002438 44 206 1.0 3.0 0.00 0.00 0.00 52 1015.3
20260503002333 44 217 0.0 3.0 0.00 0.00 0.00 52 1015.3
20260503002226 44 218 0.0 3.0 0.00 0.00 0.00 52 1015.3
20260503002122 44 218 0.0 3.0 0.00 0.00 0.00 51 1015.3
20260503002015 44 236 1.0 3.0 0.00 0.00 0.00 51 1015.6
20260503001910 44 201 0.0 2.0 0.00 0.00 0.00 52 1015.3
20260503001804 44 210 0.0 2.0 0.00 0.00 0.00 52 1015.3
20260503001700 45 209 0.0 2.0 0.00 0.00 0.00 51 1015.6
20260503001554 45 219 0.0 2.0 0.00 0.00 0.00 50 1015.6
20260503001505 45 222 0.0 2.0 0.00 0.00 0.00 50 1015.3
20260503001448 45 220 0.0 2.0 0.00 0.00 0.00 50 1015.3
20260503001342 45 210 0.0 2.0 0.00 0.00 0.00 49 1015.3
20260503001236 45 222 0.0 2.0 0.00 0.00 0.00 51 1015.6
20260503001130 45 175 0.0 2.0 0.00 0.00 0.00 50 1015.6
20260503001026 45 218 2.0 2.0 0.00 0.00 0.00 50 1015.6
20260503000959 45 224 2.0 2.0 0.00 0.00 0.00 49 1015.6
20260503000919 45 244 1.0 2.0 0.00 0.00 0.00 50 1015.6
20260503000814 45 208 0.0 2.0 0.00 0.00 0.00 51 1015.6
20260503000708 45 237 1.0 3.0 0.00 0.00 0.00 50 1015.6
20260503000604 45 243 0.0 4.0 0.00 0.00 0.00 50 1015.6
20260503000456 45 223 0.0 4.0 0.00 0.00 0.00 51 1015.6
20260503000350 45 199 0.0 4.0 0.00 0.00 0.00 50 1015.6
20260503000244 45 202 0.0 4.0 0.00 0.00 0.00 49 1015.6
20260503000152 45 219 1.0 4.0 0.00 0.00 0.00 49 1015.6
20260503000033 45 170 0.0 4.0 0.00 0.00 0.00 49 1015.3
20260502235946 46 247 2.0 4.0 0.00 0.00 0.00 48 1015.3
20260502235928 46 280 0.0 4.0 0.00 0.00 0.00 48 1015.3
20260502235822 46 222 2.0 4.0 0.00 0.00 0.00 48 1015.3
20260502235717 46 244 2.0 4.0 0.00 0.00 0.00 48 1015.6
20260502235611 46 228 3.0 4.0 0.00 0.00 0.00 47 1015.6
20260502235504 46 221 2.0 4.0 0.00 0.00 0.00 49 1015.6
20260502235437 46 201 3.0 4.0 0.00 0.00 0.00 49 1015.6
20260502235359 46 193 2.0 4.0 0.00 0.00 0.00 48 1015.6
20260502235253 46 229 4.0 4.0 0.00 0.00 0.00 50 1015.6
20260502235147 46 189 1.0 4.0 0.00 0.00 0.00 49 1015.6
20260502235041 46 235 4.0 4.0 0.00 0.00 0.00 48 1015.3
20260502234934 46 221 0.0 3.0 0.00 0.00 0.00 49 1015.3
20260502234829 46 298 0.0 3.0 0.00 0.00 0.00 50 1015.6
20260502234723 46 203 0.0 3.0 0.00 0.00 0.00 49 1015.6
20260502234619 46 194 1.0 2.0 0.00 0.00 0.00 48 1015.6
20260502234512 46 268 0.0 2.0 0.00 0.00 0.00 49 1015.6
20260502234425 46 342 0.0 2.0 0.00 0.00 0.00 48 1015.6
20260502234407 46 326 0.0 2.0 0.00 0.00 0.00 48 1015.6
20260502234301 46 336 0.0 2.0 0.00 0.00 0.00 47 1015.6
20260502234156 46 314 0.0 2.0 0.00 0.00 0.00 51 1015.6
20260502234050 46 310 0.0 2.0 0.00 0.00 0.00 53 1015.6
20260502233945 46 311 0.0 2.0 0.00 0.00 0.00 50 1015.6
20260502233918 46 311 0.0 2.0 0.00 0.00 0.00 50 1015.6
20260502233839 46 315 0.0 2.0 0.00 0.00 0.00 50 1015.6
20260502233733 46 324 0.0 2.0 0.00 0.00 0.00 49 1015.6
20260502233627 46 323 0.0 2.0 0.00 0.00 0.00 48 1015.6
20260502233521 46 292 0.0 2.0 0.00 0.00 0.00 48 1015.6
20260502233416 46 285 0.0 2.0 0.00 0.00 0.00 48 1015.6
20260502233310 46 293 0.0 2.0 0.00 0.00 0.00 47 1015.3
20260502233205 46 13 1.0 2.0 0.00 0.00 0.00 48 1015.6
20260502233059 46 295 1.0 2.0 0.00 0.00 0.00 48 1015.6
20260502232953 46 309 2.0 2.0 0.00 0.00 0.00 49 1015.6
20260502232905 46 278 0.0 2.0 0.00 0.00 0.00 50 1015.6
20260502232848 46 277 1.0 2.0 0.00 0.00 0.00 50 1015.6
20260502232742 46 294 0.0 2.0 0.00 0.00 0.00 49 1015.6
20260502232637 46 357 1.0 2.0 0.00 0.00 0.00 49 1015.9
20260502232531 46 291 1.0 2.0 0.00 0.00 0.00 49 1015.9
20260502232425 46 286 0.0 3.0 0.00 0.00 0.00 48 1015.6
20260502232359 46 298 0.0 3.0 0.00 0.00 0.00 50 1015.6
20260502232319 46 298 0.0 3.0 0.00 0.00 0.00 49 1015.6
20260502232214 46 336 1.0 3.0 0.00 0.00 0.00 48 1015.6
20260502232109 46 282 0.0 3.0 0.00 0.00 0.00 48 1015.9
20260502232003 46 270 0.0 4.0 0.00 0.00 0.00 49 1015.6
20260502231856 46 260 0.0 4.0 0.00 0.00 0.00 49 1015.6
20260502231751 46 261 0.0 4.0 0.00 0.00 0.00 47 1015.6
20260502231646 46 256 0.0 4.0 0.00 0.00 0.00 47 1015.6
20260502231539 46 261 0.0 4.0 0.00 0.00 0.00 47 1015.6
20260502231434 46 345 0.0 6.0 0.00 0.00 0.00 48 1015.6
20260502231346 46 311 0.0 6.0 0.00 0.00 0.00 48 1015.6
20260502231329 46 334 2.0 6.0 0.00 0.00 0.00 47 1015.6
20260502231223 46 330 1.0 6.0 0.00 0.00 0.00 48 1015.6
20260502231117 46 317 2.0 6.0 0.00 0.00 0.00 47 1015.9
20260502231011 46 327 1.0 6.0 0.00 0.00 0.00 47 1015.6
20260502230906 46 270 0.0 6.0 0.00 0.00 0.00 48 1015.6
20260502230839 46 270 0.0 6.0 0.00 0.00 0.00 47 1015.6
20260502230800 46 315 1.0 6.0 0.00 0.00 0.00 48 1015.6
20260502230654 46 275 1.0 6.0 0.00 0.00 0.00 47 1015.6
20260502230549 46 349 2.0 6.0 0.00 0.00 0.00 46 1015.6
20260502230455 46 88 3.0 4.0 0.00 0.00 0.00 48 1015.6
20260502230337 46 5 0.0 3.0 0.00 0.00 0.00 49 1015.6
20260502230232 46 345 0.0 3.0 0.00 0.00 0.00 50 1015.6
20260502230126 46 226 1.0 3.0 0.00 0.00 0.00 50 1015.6
20260502230021 46 315 1.0 3.0 0.00 0.00 0.00 48 1015.6
20260502225915 46 321 0.0 4.0 0.00 0.00 0.00 48 1015.6
20260502225827 46 292 1.0 6.0 0.00 0.00 0.00 47 1015.6
20260502225810 46 275 1.0 6.0 0.00 0.00 0.00 47 1015.6
20260502225704 46 274 0.0 6.0 0.00 0.00 0.00 47 1015.6
20260502225600 46 257 0.0 6.0 0.00 0.00 0.00 48 1015.6
20260502225551 46 328 1.0 6.0 0.00 0.00 0.00 48 1015.6
20260502225545 46 287 1.0 6.0 0.00 0.00 0.00 49 1015.6
20260502225536 46 345 2.0 6.0 0.00 0.00 0.00 47 1015.6
20260502225240 46 253 1.0 6.0 0.00 0.00 0.00 48 1015.6
20260502225134 46 197 0.0 9.0 0.00 0.00 0.00 48 1015.6
20260502225029 47 323 3.0 9.0 0.00 0.00 0.00 47 1015.6
20260502224922 47 334 3.0 9.0 0.00 0.00 0.00 46 1015.9
20260502224817 47 286 1.0 9.0 0.00 0.00 0.00 49 1015.6
20260502224712 47 139 0.0 9.0 0.00 0.00 0.00 49 1015.6
20260502224606 47 346 2.0 9.0 0.00 0.00 0.00 47 1015.6
20260502224539 47 326 1.0 9.0 0.00 0.00 0.00 47 1015.9
20260502224535 47 263 4.0 9.0 0.00 0.00 0.00 47 1015.6
20260502224527 47 246 2.0 9.0 0.00 0.00 0.00 48 1015.9
20260502224248 47 257 6.0 9.0 0.00 0.00 0.00 47 1015.9
20260502224142 47 267 2.0 7.0 0.00 0.00 0.00 47 1015.6
20260502224038 47 334 3.0 7.0 0.00 0.00 0.00 48 1015.6
20260502223931 46 346 0.0 7.0 0.00 0.00 0.00 48 1015.6
20260502223825 46 291 0.0 7.0 0.00 0.00 0.00 47 1015.9
20260502223759 46 293 1.0 7.0 0.00 0.00 0.00 47 1015.9
20260502223720 46 329 2.0 7.0 0.00 0.00 0.00 47 1015.6
20260502223613 47 1 1.0 7.0 0.00 0.00 0.00 47 1015.6
20260502223507 47 327 2.0 7.0 0.00 0.00 0.00 46 1015.6
20260502223402 47 338 2.0 7.0 0.00 0.00 0.00 48 1015.6
20260502223256 47 296 2.0 7.0 0.00 0.00 0.00 47 1015.6
20260502223151 47 329 2.0 7.0 0.00 0.00 0.00 48 1015.6
20260502223045 47 91 2.0 7.0 0.00 0.00 0.00 47 1015.6
20260502222939 47 358 0.0 7.0 0.00 0.00 0.00 49 1015.6
20260502222833 46 223 1.0 7.0 0.00 0.00 0.00 49 1015.9
20260502222746 46 295 0.0 7.0 0.00 0.00 0.00 48 1015.9
20260502222728 46 276 0.0 7.0 0.00 0.00 0.00 49 1015.6
20260502222623 46 262 3.0 7.0 0.00 0.00 0.00 48 1015.6
20260502222516 46 332 0.0 4.0 0.00 0.00 0.00 49 1015.6
20260502222410 46 314 0.0 6.0 0.00 0.00 0.00 48 1015.6
20260502222305 46 210 0.0 6.0 0.00 0.00 0.00 49 1015.6
20260502222238 46 234 1.0 6.0 0.00 0.00 0.00 48 1015.6
20260502222159 46 345 2.0 6.0 0.00 0.00 0.00 49 1015.6
20260502222053 46 252 1.0 6.0 0.00 0.00 0.00 48 1015.9
20260502221958 46 301 3.0 6.0 0.00 0.00 0.00 49 1015.9
20260502221840 46 273 2.0 6.0 0.00 0.00 0.00 48 1015.6
20260502221735 46 5 0.0 6.0 0.00 0.00 0.00 48 1015.9
20260502221629 46 330 2.0 6.0 0.00 0.00 0.00 47 1015.9
20260502221524 46 331 2.0 6.0 0.00 0.00 0.00 47 1015.9
20260502221418 46 330 2.0 3.0 0.00 0.00 0.00 47 1015.9
20260502221325 47 334 2.0 3.0 0.00 0.00 0.00 47 1015.9
20260502221225 47 323 2.0 3.0 0.00 0.00 0.00 47 1015.6
20260502221206 47 98 0.0 4.0 0.00 0.00 0.00 48 1015.6
20260502221101 46 85 1.0 4.0 0.00 0.00 0.00 47 1015.6
20260502220956 46 241 1.0 9.0 0.00 0.00 0.00 48 1015.9
20260502220850 46 296 1.0 9.0 0.00 0.00 0.00 48 1015.9
20260502220743 46 326 1.0 9.0 0.00 0.00 0.00 48 1015.6
20260502220717 46 231 1.0 9.0 0.00 0.00 0.00 48 1015.6
20260502220638 46 244 1.0 9.0 0.00 0.00 0.00 47 1015.6
20260502220532 46 281 2.0 9.0 0.00 0.00 0.00 48 1015.9
20260502220428 46 158 0.0 9.0 0.00 0.00 0.00 48 1015.9
20260502220322 46 303 2.0 9.0 0.00 0.00 0.00 47 1015.9
20260502220216 46 352 2.0 9.0 0.00 0.00 0.00 47 1015.9
20260502220112 46 213 6.0 9.0 0.00 0.00 0.00 47 1015.9
20260502220006 46 329 2.0 6.0 0.00 0.00 0.00 49 1015.9
20260502215859 46 308 1.0 6.0 0.00 0.00 0.00 48 1015.9
20260502215754 46 330 4.0 8.0 0.00 0.00 0.00 47 1015.9
20260502215705 46 336 4.0 8.0 0.00 0.00 0.00 47 1015.6
20260502215648 46 20 4.0 8.0 0.00 0.00 0.00 47 1015.6
20260502215542 46 286 1.0 8.0 0.00 0.00 0.00 49 1015.6
20260502215436 46 260 2.0 8.0 0.00 0.00 0.00 49 1015.9
20260502215332 46 329 5.0 8.0 0.00 0.00 0.00 47 1015.6
20260502215226 46 318 4.0 8.0 0.00 0.00 0.00 47 1015.6
20260502215159 46 335 0.0 8.0 0.00 0.00 0.00 49 1015.6
20260502215120 46 318 2.0 8.0 0.00 0.00 0.00 48 1015.9
20260502215015 46 319 4.0 8.0 0.00 0.00 0.00 48 1015.6
20260502214931 46 314 2.0 8.0 0.00 0.00 0.00 48 1015.9
20260502214922 46 323 6.0 8.0 0.00 0.00 0.00 48 1015.9
20260502214912 46 320 3.0 7.0 0.00 0.00 0.00 48 1015.9
20260502214554 46 253 1.0 7.0 0.00 0.00 0.00 48 1015.6
20260502214448 46 327 2.0 7.0 0.00 0.00 0.00 47 1016.3
20260502214342 46 290 2.0 10.0 0.00 0.00 0.00 47 1015.9
20260502214237 46 337 5.0 10.0 0.00 0.00 0.00 47 1015.9
20260502214148 46 287 1.0 10.0 0.00 0.00 0.00 50 1015.9
20260502214131 46 308 2.0 10.0 0.00 0.00 0.00 49 1015.9
20260502214025 46 239 0.0 10.0 0.00 0.00 0.00 48 1015.6
20260502213920 46 37 2.0 10.0 0.00 0.00 0.00 47 1015.6
20260502213814 46 333 0.0 10.0 0.00 0.00 0.00 47 1015.9
20260502213708 46 269 2.0 10.0 0.00 0.00 0.00 48 1015.9
20260502213641 46 269 2.0 10.0 0.00 0.00 0.00 48 1015.9
20260502213603 47 327 1.0 10.0 0.00 0.00 0.00 49 1015.6
20260502213457 47 198 6.0 10.0 0.00 0.00 0.00 47 1015.6
20260502213351 47 296 2.0 8.0 0.00 0.00 0.00 49 1015.6
20260502213245 47 320 1.0 8.0 0.00 0.00 0.00 50 1015.6
20260502213140 47 314 2.0 8.0 0.00 0.00 0.00 48 1015.6
20260502213035 47 226 4.0 7.0 0.00 0.00 0.00 47 1015.6
20260502212928 47 249 0.0 7.0 0.00 0.00 0.00 48 1015.6
20260502212823 47 191 2.0 7.0 0.00 0.00 0.00 47 1015.6
20260502212718 47 249 1.0 7.0 0.00 0.00 0.00 49 1015.6
20260502212630 47 172 0.0 7.0 0.00 0.00 0.00 47 1015.6
20260502212613 47 304 1.0 7.0 0.00 0.00 0.00 48 1015.6
20260502212506 46 248 1.0 7.0 0.00 0.00 0.00 48 1015.6
20260502212400 46 274 1.0 7.0 0.00 0.00 0.00 49 1015.6
20260502212255 46 239 2.0 7.0 0.00 0.00 0.00 47 1015.9
20260502212150 47 320 2.0 6.0 0.00 0.00 0.00 48 1015.6
20260502212123 47 298 1.0 6.0 0.00 0.00 0.00 47 1015.6
20260502212044 47 276 4.0 6.0 0.00 0.00 0.00 47 1015.6
20260502211939 47 257 3.0 6.0 0.00 0.00 0.00 47 1015.9
20260502211833 47 304 2.0 6.0 0.00 0.00 0.00 48 1015.6
20260502211726 47 346 3.0 7.0 0.00 0.00 0.00 47 1015.6
20260502211620 47 8 2.0 7.0 0.00 0.00 0.00 50 1015.9
20260502211515 47 250 0.0 7.0 0.00 0.00 0.00 48 1015.6
20260502211410 47 330 2.0 7.0 0.00 0.00 0.00 49 1015.6
20260502211305 46 296 3.0 7.0 0.00 0.00 0.00 48 1015.9
20260502211159 46 76 1.0 7.0 0.00 0.00 0.00 49 1015.9
20260502211111 46 325 1.0 7.0 0.00 0.00 0.00 50 1015.9
20260502211053 46 315 3.0 7.0 0.00 0.00 0.00 49 1015.9
20260502210947 46 214 3.0 7.0 0.00 0.00 0.00 48 1015.6
20260502210841 46 265 2.0 7.0 0.00 0.00 0.00 48 1015.6
20260502210736 46 272 4.0 6.0 0.00 0.00 0.00 48 1015.9
20260502210630 46 272 2.0 6.0 0.00 0.00 0.00 49 1015.9
20260502210603 46 325 2.0 6.0 0.00 0.00 0.00 49 1015.9
20260502210524 46 329 2.0 6.0 0.00 0.00 0.00 49 1015.6
20260502210418 46 45 4.0 6.0 0.00 0.00 0.00 49 1015.6
20260502210314 46 330 3.0 4.0 0.00 0.00 0.00 49 1015.9
20260502210207 46 323 0.0 4.0 0.00 0.00 0.00 49 1015.9
20260502210110 46 319 1.0 7.0 0.00 0.00 0.00 48 1015.9
20260502205956 46 244 1.0 7.0 0.00 0.00 0.00 49 1015.9
20260502205850 46 302 1.0 7.0 0.00 0.00 0.00 49 1015.9
20260502205745 46 222 2.0 7.0 0.00 0.00 0.00 50 1015.9
20260502205639 46 249 1.0 7.0 0.00 0.00 0.00 51 1016.3
20260502205551 46 27 2.0 7.0 0.00 0.00 0.00 50 1015.9
20260502205534 46 282 0.0 7.0 0.00 0.00 0.00 49 1015.9
20260502205428 46 296 1.0 7.0 0.00 0.00 0.00 50 1015.9
20260502205322 46 252 1.0 7.0 0.00 0.00 0.00 49 1015.9
20260502205218 46 261 2.0 7.0 0.00 0.00 0.00 48 1015.9
20260502205111 46 180 1.0 6.0 0.00 0.00 0.00 50 1015.9
20260502205045 46 287 2.0 6.0 0.00 0.00 0.00 49 1015.9
20260502205005 46 246 2.0 6.0 0.00 0.00 0.00 49 1015.9
20260502204900 46 240 2.0 6.0 0.00 0.00 0.00 52 1015.9
20260502204754 46 227 1.0 6.0 0.00 0.00 0.00 51 1015.9
20260502204648 46 313 2.0 9.0 0.00 0.00 0.00 49 1015.9
20260502204543 46 340 3.0 9.0 0.00 0.00 0.00 50 1015.6
20260502204437 46 317 2.0 9.0 0.00 0.00 0.00 49 1015.9
20260502204332 46 345 4.0 9.0 0.00 0.00 0.00 49 1016.3
20260502204226 46 333 3.0 9.0 0.00 0.00 0.00 49 1015.9
20260502204120 46 256 0.0 9.0 0.00 0.00 0.00 50 1016.3
20260502204031 46 229 1.0 9.0 0.00 0.00 0.00 50 1016.3
20260502204015 46 229 1.0 9.0 0.00 0.00 0.00 50 1015.9
20260502203908 46 273 4.0 9.0 0.00 0.00 0.00 50 1015.9
20260502203801 46 226 4.0 9.0 0.00 0.00 0.00 50 1015.9
20260502203656 46 299 3.0 8.0 0.00 0.00 0.00 49 1016.3
20260502203550 46 307 2.0 8.0 0.00 0.00 0.00 48 1015.9
20260502203524 46 327 4.0 8.0 0.00 0.00 0.00 48 1016.3
20260502203445 46 357 2.0 8.0 0.00 0.00 0.00 49 1016.3
20260502203346 46 276 3.0 8.0 0.00 0.00 0.00 49 1016.3
20260502203240 45 201 1.0 8.0 0.00 0.00 0.00 50 1016.3
20260502203133 45 332 1.0 8.0 0.00 0.00 0.00 48 1016.3
20260502203026 46 328 2.0 8.0 0.00 0.00 0.00 48 1015.9
20260502202922 46 335 5.0 8.0 0.00 0.00 0.00 48 1015.9
20260502202815 46 321 3.0 7.0 0.00 0.00 0.00 51 1016.3
20260502202711 46 8 1.0 7.0 0.00 0.00 0.00 50 1015.9
20260502202605 46 340 2.0 10.0 0.00 0.00 0.00 50 1016.3
20260502202516 46 330 4.0 10.0 0.00 0.00 0.00 50 1016.3
20260502202459 46 340 1.0 10.0 0.00 0.00 0.00 49 1016.3
20260502202353 46 66 0.0 10.0 0.00 0.00 0.00 50 1015.9
20260502202247 46 257 0.0 10.0 0.00 0.00 0.00 50 1016.3
20260502202141 46 229 4.0 10.0 0.00 0.00 0.00 50 1015.9
20260502202035 46 230 1.0 10.0 0.00 0.00 0.00 49 1016.3
20260502202009 46 202 2.0 10.0 0.00 0.00 0.00 49 1015.9
20260502201929 46 239 5.0 10.0 0.00 0.00 0.00 49 1016.3
20260502201824 46 83 0.0 10.0 0.00 0.00 0.00 49 1016.3
20260502201718 46 121 3.0 10.0 0.00 0.00 0.00 49 1015.9
20260502201612 46 269 6.0 10.0 0.00 0.00 0.00 48 1015.9
20260502201506 46 204 1.0 8.0 0.00 0.00 0.00 49 1016.3
20260502201401 46 221 1.0 8.0 0.00 0.00 0.00 49 1016.3
20260502201255 46 171 1.0 8.0 0.00 0.00 0.00 48 1015.9
20260502201149 46 249 1.0 8.0 0.00 0.00 0.00 47 1016.3
20260502201043 46 230 1.0 7.0 0.00 0.00 0.00 48 1016.3
20260502200956 46 156 2.0 7.0 0.00 0.00 0.00 49 1015.9
20260502200938 46 244 2.0 7.0 0.00 0.00 0.00 49 1015.9
20260502200833 47 257 2.0 7.0 0.00 0.00 0.00 49 1016.3
20260502200727 47 226 1.0 9.0 0.00 0.00 0.00 48 1016.3
20260502200622 47 278 6.0 9.0 0.00 0.00 0.00 48 1016.3
20260502200515 47 216 0.0 9.0 0.00 0.00 0.00 48 1016.3
20260502200448 47 93 2.0 9.0 0.00 0.00 0.00 49 1016.3
20260502200409 47 255 5.0 9.0 0.00 0.00 0.00 48 1016.3
20260502200303 46 303 1.0 9.0 0.00 0.00 0.00 49 1016.3
20260502200158 46 215 4.0 9.0 0.00 0.00 0.00 50 1016.3
20260502195946 45 218 3.0 9.0 0.00 0.00 0.00 50 1016.3
20260502195841 46 251 3.0 9.0 0.00 0.00 0.00 49 1016.3
20260502195736 46 253 4.0 7.0 0.00 0.00 0.00 48 1016.3
20260502195632 46 285 0.0 7.0 0.00 0.00 0.00 50 1016.3
20260502195528 45 307 0.0 7.0 0.00 0.00 0.00 50 1016.6
20260502195439 45 247 2.0 7.0 0.00 0.00 0.00 48 1016.6
20260502195422 45 319 4.0 7.0 0.00 0.00 0.00 48 1016.3
20260502195316 45 208 2.0 7.0 0.00 0.00 0.00 48 1016.6
20260502195210 46 278 3.0 7.0 0.00 0.00 0.00 50 1016.6
20260502195106 46 280 2.0 7.0 0.00 0.00 0.00 49 1016.6
20260502195000 46 258 2.0 7.0 0.00 0.00 0.00 50 1016.3
20260502194934 46 351 3.0 7.0 0.00 0.00 0.00 49 1016.3
20260502194855 46 130 1.0 7.0 0.00 0.00 0.00 48 1016.3
20260502194749 46 221 3.0 7.0 0.00 0.00 0.00 48 1016.3
20260502194644 46 232 3.0 7.0 0.00 0.00 0.00 48 1016.6
20260502194538 46 344 5.0 7.0 0.00 0.00 0.00 49 1016.6
20260502194432 46 303 2.0 7.0 0.00 0.00 0.00 50 1016.3
20260502194326 46 41 2.0 7.0 0.00 0.00 0.00 48 1016.3
20260502194221 46 338 0.0 9.0 0.00 0.00 0.00 48 1016.6
20260502194129 46 252 0.0 9.0 0.00 0.00 0.00 49 1016.6
20260502194010 45 349 0.0 9.0 0.00 0.00 0.00 48 1016.6
20260502193922 45 351 0.0 9.0 0.00 0.00 0.00 48 1016.6
20260502193905 45 349 0.0 9.0 0.00 0.00 0.00 48 1016.6
20260502193759 45 344 0.0 9.0 0.00 0.00 0.00 48 1016.6
20260502193654 45 337 4.0 9.0 0.00 0.00 0.00 48 1016.3
20260502193549 45 330 3.0 9.0 0.00 0.00 0.00 48 1016.3
20260502193443 46 325 5.0 9.0 0.00 0.00 0.00 48 1016.6
20260502193417 46 1 5.0 9.0 0.00 0.00 0.00 47 1016.6
20260502193337 46 329 5.0 9.0 0.00 0.00 0.00 47 1016.6
20260502193232 46 334 4.0 8.0 0.00 0.00 0.00 47 1016.6
20260502193126 46 319 2.0 8.0 0.00 0.00 0.00 46 1016.6
20260502193022 46 322 0.0 8.0 0.00 0.00 0.00 49 1016.6
20260502192915 46 337 3.0 8.0 0.00 0.00 0.00 48 1016.3
20260502192810 46 322 5.0 8.0 0.00 0.00 0.00 47 1016.6
20260502192706 46 349 3.0 7.0 0.00 0.00 0.00 47 1016.6
20260502192600 46 343 2.0 7.0 0.00 0.00 0.00 48 1016.6
20260502192454 46 304 4.0 7.0 0.00 0.00 0.00 48 1016.6
20260502192406 46 326 4.0 7.0 0.00 0.00 0.00 49 1016.6
20260502192349 46 320 0.0 7.0 0.00 0.00 0.00 50 1016.6
20260502192243 46 15 3.0 7.0 0.00 0.00 0.00 48 1016.3
20260502192137 46 240 5.0 7.0 0.00 0.00 0.00 48 1016.6
20260502192033 47 297 3.0 6.0 0.00 0.00 0.00 48 1016.6
20260502191927 47 91 3.0 10.0 0.00 0.00 0.00 49 1016.6
20260502191902 47 294 1.0 10.0 0.00 0.00 0.00 48 1016.6
20260502191822 47 232 2.0 10.0 0.00 0.00 0.00 48 1016.6
20260502191716 47 277 1.0 10.0 0.00 0.00 0.00 47 1016.6
20260502191610 47 243 2.0 10.0 0.00 0.00 0.00 48 1016.6
20260502191505 47 259 0.0 10.0 0.00 0.00 0.00 47 1016.9
20260502191359 47 356 2.0 10.0 0.00 0.00 0.00 47 1016.6
20260502191254 47 238 2.0 10.0 0.00 0.00 0.00 46 1016.6
20260502191148 48 345 2.0 10.0 0.00 0.00 0.00 45 1016.6
20260502191043 48 267 2.0 10.0 0.00 0.00 0.00 45 1016.9
20260502190937 48 285 2.0 6.0 0.00 0.00 0.00 45 1016.9
20260502190914 46 331 3.0 7.0 0.00 0.00 0.00 48 1016.9
20260502190908 48 290 2.0 6.0 0.00 0.00 0.00 48 1016.6
20260502190904 48 204 2.0 6.0 0.00 0.00 0.00 47 1016.6
20260502190856 47 277 3.0 6.0 0.00 0.00 0.00 48 1016.6
20260502190633 47 49 1.0 6.0 0.00 0.00 0.00 49 1016.9
20260502190625 46 276 3.0 6.0 0.00 0.00 0.00 49 1016.9
20260502190603 46 246 2.0 7.0 0.00 0.00 0.00 47 1016.9
20260502190318 46 335 4.0 7.0 0.00 0.00 0.00 48 1016.6
20260502190159 46 41 4.0 7.0 0.00 0.00 0.00 49 1016.9
20260502190131 46 201 0.0 7.0 0.00 0.00 0.00 49 1016.9
20260502190127 46 274 3.0 7.0 0.00 0.00 0.00 50 1016.9
20260502190118 46 220 3.0 7.0 0.00 0.00 0.00 48 1016.6
20260502190055 46 201 0.0 7.0 0.00 0.00 0.00 49 1016.9
20260502185738 46 263 0.0 7.0 0.00 0.00 0.00 49 1016.9
20260502185632 46 292 0.0 7.0 0.00 0.00 0.00 48 1016.6
20260502185527 46 345 5.0 7.0 0.00 0.00 0.00 47 1016.9
20260502185421 47 302 2.0 7.0 0.00 0.00 0.00 45 1016.9
20260502185408 45 215 4.0 13.0 0.00 0.00 0.00 50 1016.9
20260502185402 47 301 1.0 7.0 0.00 0.00 0.00 46 1016.9
20260502185358 47 89 1.0 7.0 0.00 0.00 0.00 46 1016.6
20260502185349 47 286 5.0 7.0 0.00 0.00 0.00 46 1016.9
20260502185127 46 329 4.0 8.0 0.00 0.00 0.00 46 1016.9
20260502185123 46 302 4.0 8.0 0.00 0.00 0.00 47 1016.9
20260502185119 47 195 1.0 7.0 0.00 0.00 0.00 45 1016.9
20260502185111 46 207 1.0 8.0 0.00 0.00 0.00 45 1016.9
20260502185102 46 333 4.0 8.0 0.00 0.00 0.00 46 1016.6
20260502184841 46 286 4.0 8.0 0.00 0.00 0.00 46 1016.9
20260502184832 46 265 4.0 8.0 0.00 0.00 0.00 45 1016.9
20260502184607 46 246 3.0 8.0 0.00 0.00 0.00 47 1016.9
20260502184559 46 242 6.0 8.0 0.00 0.00 0.00 46 1016.6
20260502184549 46 302 4.0 8.0 0.00 0.00 0.00 47 1016.9
20260502184328 45 306 4.0 13.0 0.00 0.00 0.00 49 1016.9
20260502184320 45 149 2.0 13.0 0.00 0.00 0.00 51 1016.9
20260502184100 47 269 3.0 11.0 0.00 0.00 0.00 45 1016.6
20260502184056 45 291 3.0 13.0 0.00 0.00 0.00 49 1016.9
20260502184048 45 325 4.0 13.0 0.00 0.00 0.00 51 1016.9
20260502183826 45 256 3.0 13.0 0.00 0.00 0.00 50 1016.9
20260502183818 45 241 4.0 13.0 0.00 0.00 0.00 49 1016.9
20260502183551 45 302 3.0 13.0 0.00 0.00 0.00 49 1016.6
20260502183542 45 341 0.0 13.0 0.00 0.00 0.00 50 1016.9
20260502183534 46 306 4.0 13.0 0.00 0.00 0.00 48 1016.9
20260502183313 46 287 10.0 13.0 0.00 0.00 0.00 48 1016.9
20260502183309 46 326 3.0 10.0 0.00 0.00 0.00 50 1016.9
20260502183300 46 354 1.0 10.0 0.00 0.00 0.00 49 1016.6
20260502183041 46 327 4.0 11.0 0.00 0.00 0.00 48 1016.9
20260502183033 47 0 4.0 11.0 0.00 0.00 0.00 48 1016.6
20260502183022 47 269 3.0 11.0 0.00 0.00 0.00 45 1016.6
20260502182705 47 8 0.0 11.0 0.00 0.00 0.00 45 1016.6
20260502182559 46 315 2.0 11.0 0.00 0.00 0.00 44 1016.9
20260502182452 45 245 1.0 11.0 0.00 0.00 0.00 46 1016.9
20260502182347 45 252 0.0 11.0 0.00 0.00 0.00 46 1016.9
20260502182259 45 321 2.0 11.0 0.00 0.00 0.00 47 1016.9
20260502182242 46 288 2.0 11.0 0.00 0.00 0.00 46 1016.9
20260502182136 46 255 2.0 11.0 0.00 0.00 0.00 46 1016.9
20260502182030 46 221 3.0 11.0 0.00 0.00 0.00 47 1016.9
20260502181924 46 234 2.0 11.0 0.00 0.00 0.00 48 1016.9
20260502181818 46 242 3.0 11.0 0.00 0.00 0.00 48 1016.9
20260502181752 45 261 2.0 11.0 0.00 0.00 0.00 47 1016.9
20260502181713 45 323 7.0 11.0 0.00 0.00 0.00 46 1016.9
20260502181606 45 325 2.0 8.0 0.00 0.00 0.00 47 1016.9
20260502181502 45 22 6.0 8.0 0.00 0.00 0.00 47 1016.9
20260502181356 45 26 2.0 7.0 0.00 0.00 0.00 48 1016.9
20260502181249 45 331 2.0 7.0 0.00 0.00 0.00 47 1016.9
20260502181145 45 292 4.0 7.0 0.00 0.00 0.00 47 1016.9
20260502181039 46 299 4.0 7.0 0.00 0.00 0.00 47 1016.9
20260502180933 46 240 0.0 6.0 0.00 0.00 0.00 47 1016.9
20260502180828 46 266 3.0 6.0 0.00 0.00 0.00 48 1016.9
20260502180739 46 266 2.0 6.0 0.00 0.00 0.00 46 1016.9
20260502180722 46 6 2.0 6.0 0.00 0.00 0.00 46 1016.9
20260502180617 46 312 2.0 7.0 0.00 0.00 0.00 49 1016.9
20260502180511 46 237 4.0 7.0 0.00 0.00 0.00 46 1016.9
20260502180405 46 311 2.0 7.0 0.00 0.00 0.00 46 1016.9
20260502180300 46 235 0.0 7.0 0.00 0.00 0.00 47 1016.9
20260502180234 46 286 2.0 7.0 0.00 0.00 0.00 47 1016.9
20260502180155 46 290 1.0 7.0 0.00 0.00 0.00 45 1016.9
20260502180103 46 305 1.0 7.0 0.00 0.00 0.00 46 1016.9
20260502170505 47 350 2.0 6.0 0.00 0.00 0.00 46 1016.9
20260502170359 47 232 2.0 6.0 0.00 0.00 0.00 44 1016.9
20260502170253 48 204 5.0 6.0 0.00 0.00 0.00 43 1017.3
20260502170148 48 200 1.0 6.0 0.00 0.00 0.00 42 1016.9
20260502170122 48 238 2.0 6.0 0.00 0.00 0.00 45 1017.7
20260502164313 47 266 2.0 9.0 0.00 0.00 0.00 46 1017.3
20260502164209 47 266 6.0 9.0 0.00 0.00 0.00 44 1017.3
20260502164103 47 1 2.0 7.0 0.00 0.00 0.00 50 1017.3
20260502163957 46 236 1.0 7.0 0.00 0.00 0.00 47 1017.3
20260502163851 44 276 2.0 8.0 0.00 0.00 0.00 48 1017.3
20260502163746 44 246 2.0 8.0 0.00 0.00 0.00 48 1017.3
20260502163641 45 61 2.0 8.0 0.00 0.00 0.00 47 1017.7
20260502163553 45 277 3.0 8.0 0.00 0.00 0.00 47 1017.7
20260502163536 45 323 6.0 8.0 0.00 0.00 0.00 47 1017.7
20260502163430 46 336 5.0 8.0 0.00 0.00 0.00 47 1017.3
20260502163325 46 340 2.0 8.0 0.00 0.00 0.00 46 1017.3
20260502163219 45 213 2.0 8.0 0.00 0.00 0.00 51 1017.3
20260502163113 44 244 2.0 8.0 0.00 0.00 0.00 50 1017.3
20260502163048 44 184 1.0 8.0 0.00 0.00 0.00 51 1017.3
20260502163008 44 322 4.0 8.0 0.00 0.00 0.00 48 1017.7
20260502162903 43 146 0.0 7.0 0.00 0.00 0.00 49 1017.3
20260502162757 43 333 2.0 8.0 0.00 0.00 0.00 49 1017.3
20260502162653 43 243 3.0 13.0 0.00 0.00 0.00 52 1017.7
20260502162547 43 251 4.0 13.0 0.00 0.00 0.00 49 1017.3
20260502162441 43 249 3.0 13.0 0.00 0.00 0.00 48 1017.7
20260502162336 43 281 1.0 13.0 0.00 0.00 0.00 50 1017.7
20260502162242 0 0.0 0.0 0.00 0.00 0.00
20260502162238 42 321 4.0 6.0 0.00 0.00 0.00 52 1017.7
20260502162234 43 342 2.0 13.0 0.00 0.00 0.00 49 1017.7
20260502162225 45 251 1.0 6.0 0.00 0.00 0.00 50 1017.7
20260502162221 44 220 3.0 6.0 0.00 0.00 0.00 51 1017.3
20260502162217 46 245 2.0 7.0 0.00 0.00 0.00 47 1017.3
20260502162212 43 334 7.0 11.0 0.00 0.00 0.00 53 1017.3
20260502162208 43 271 4.0 11.0 0.00 0.00 0.00 51 1017.7
20260502162204 44 228 0.0 9.0 0.00 0.00 0.00 52 1017.7
20260502162200 43 333 0.0 13.0 0.00 0.00 0.00 49 1017.3
20260502162150 43 351 4.0 13.0 0.00 0.00 0.00 49 1017.3
20260502162146 43 315 5.0 13.0 0.00 0.00 0.00 49 1017.3
20260502161925 44 301 1.0 13.0 0.00 0.00 0.00 49 1017.7
20260502161915 44 302 6.0 13.0 0.00 0.00 0.00 48 1017.3
20260502161907 44 327 1.0 6.0 0.00 0.00 0.00 48 1017.7
20260502161648 45 311 3.0 6.0 0.00 0.00 0.00 46 1017.7
20260502161637 45 339 1.0 6.0 0.00 0.00 0.00 46 1017.7
20260502161633 45 224 0.0 6.0 0.00 0.00 0.00 46 1017.7
20260502161412 46 340 2.0 6.0 0.00 0.00 0.00 45 1017.3
20260502161404 46 331 4.0 7.0 0.00 0.00 0.00 48 1017.7
20260502161355 46 29 3.0 7.0 0.00 0.00 0.00 45 1017.3
20260502161345 46 245 2.0 7.0 0.00 0.00 0.00 47 1017.3
20260502161126 45 30 0.0 8.0 0.00 0.00 0.00 46 1017.7
20260502160905 42 358 5.0 8.0 0.00 0.00 0.00 51 1017.7
20260502160901 44 25 2.0 8.0 0.00 0.00 0.00 48 1017.7
20260502160852 42 301 0.0 8.0 0.00 0.00 0.00 51 1017.7
20260502160844 42 262 0.0 8.0 0.00 0.00 0.00 52 1017.7
20260502160619 42 358 5.0 8.0 0.00 0.00 0.00 51 1017.7
20260502160357 42 337 4.0 8.0 0.00 0.00 0.00 52 1017.7
20260502160348 42 305 3.0 8.0 0.00 0.00 0.00 52 1017.7
20260502160340 42 325 2.0 11.0 0.00 0.00 0.00 52 1017.3
20260502160332 43 329 5.0 11.0 0.00 0.00 0.00 52 1017.7
20260502160109 43 257 3.0 11.0 0.00 0.00 0.00 54 1017.3
20260502152244 44 330 2.0 6.0 0.00 0.00 0.00 53 1017.7
20260502152236 44 340 2.0 6.0 0.00 0.00 0.00 52 1017.3
20260502152227 44 261 1.0 6.0 0.00 0.00 0.00 54 1017.7
20260502152001 45 307 2.0 6.0 0.00 0.00 0.00 53 1017.7
20260502151957 45 286 3.0 6.0 0.00 0.00 0.00 53 1017.3
20260502151948 46 303 4.0 6.0 0.00 0.00 0.00 52 1017.7
20260502151723 46 293 3.0 6.0 0.00 0.00 0.00 52 1017.3
20260502151715 46 323 1.0 6.0 0.00 0.00 0.00 50 1017.3
20260502151454 45 47 1.0 6.0 0.00 0.00 0.00 53 1017.3
20260502151443 45 42 1.0 6.0 0.00 0.00 0.00 53 1017.7
20260502151439 44 59 0.0 6.0 0.00 0.00 0.00 51 1017.7
20260502151431 44 344 3.0 6.0 0.00 0.00 0.00 51 1017.3
20260502151207 43 47 0.0 6.0 0.00 0.00 0.00 52 1017.7
20260502151158 43 3 2.0 6.0 0.00 0.00 0.00 52 1017.3
20260502151148 42 321 4.0 6.0 0.00 0.00 0.00 52 1017.7
20260502150927 42 8 2.0 6.0 0.00 0.00 0.00 54 1017.3
20260502150919 42 337 1.0 6.0 0.00 0.00 0.00 52 1017.3
20260502150654 42 314 2.0 6.0 0.00 0.00 0.00 53 1017.7
20260502150645 43 356 2.0 6.0 0.00 0.00 0.00 52 1017.3
20260502150424 43 332 4.0 6.0 0.00 0.00 0.00 52 1017.3
20260502150420 43 319 2.0 6.0 0.00 0.00 0.00 51 1017.3
20260502150411 44 12 2.0 6.0 0.00 0.00 0.00 51 1017.3
20260502150148 45 330 3.0 6.0 0.00 0.00 0.00 50 1017.7
20260502150139 45 283 0.0 2.0 0.00 0.00 0.00 52 1017.3
20260502150129 0 0.0 0.0 0.00 0.00 0.00
20260502130747 40 29 2.0 9.0 0.00 0.00 0.00 70 1017.7
20260502130641 40 342 0.0 9.0 0.00 0.00 0.00 70 1017.7
20260502130536 40 338 3.0 9.0 0.00 0.00 0.00 70 1017.7
20260502130430 40 340 5.0 9.0 0.00 0.00 0.00 70 1017.7
20260502130325 40 304 2.0 9.0 0.00 0.00 0.00 71 1017.7
20260502130220 40 56 0.0 9.0 0.00 0.00 0.00 72 1017.7
20260502130114 40 333 4.0 9.0 0.00 0.00 0.00 70 1017.7
20260502123750 38 279 0.0 7.0 0.00 0.00 0.00 78 1017.7
20260502123711 38 334 3.0 7.0 0.00 0.00 0.00 78 1017.7
20260502123605 38 351 1.0 7.0 0.00 0.00 0.00 78 1017.7
20260502123459 38 320 2.0 6.0 0.00 0.00 0.00 78 1017.7
20260502123354 38 326 2.0 6.0 0.00 0.00 0.00 78 1017.7
20260502123247 38 321 3.0 6.0 0.00 0.00 0.00 79 1017.7
20260502123142 38 260 1.0 6.0 0.00 0.00 0.00 79 1017.7
20260502123034 38 312 2.0 6.0 0.00 0.00 0.00 79 1017.7
20260502122929 38 334 4.0 6.0 0.00 0.00 0.00 79 1017.7
20260502122823 38 314 0.0 6.0 0.00 0.00 0.00 80 1017.7
20260502122735 38 342 2.0 6.0 0.00 0.00 0.00 80 1017.7
20260502122717 38 337 1.0 6.0 0.00 0.00 0.00 80 1017.7
20260502122612 38 317 2.0 7.0 0.00 0.00 0.00 80 1017.3
20260502122506 38 320 5.0 7.0 0.00 0.00 0.00 80 1017.7
20260502122401 37 276 2.0 7.0 0.00 0.00 0.00 81 1017.3
20260502122255 37 331 3.0 7.0 0.00 0.00 0.00 81 1017.7
20260502122229 37 273 1.0 7.0 0.00 0.00 0.00 81 1017.7
20260502122148 37 3 2.0 7.0 0.00 0.00 0.00 81 1017.7
20260502122043 37 339 2.0 7.0 0.00 0.00 0.00 81 1017.7
20260502121937 37 305 3.0 7.0 0.00 0.00 0.00 81 1017.7
20260502121831 37 327 4.0 7.0 0.00 0.00 0.00 81 1017.3
20260502121726 37 346 6.0 7.0 0.00 0.00 0.00 82 1017.7
20260502121620 37 279 2.0 7.0 0.00 0.00 0.00 82 1017.7
20260502121515 37 303 1.0 6.0 0.00 0.00 0.00 82 1017.7
20260502121409 37 300 2.0 6.0 0.00 0.00 0.00 82 1017.7
20260502121303 37 289 1.0 6.0 0.00 0.00 0.00 82 1017.7
20260502121216 37 10 2.0 6.0 0.00 0.00 0.00 82 1017.3
20260502121158 37 175 1.0 6.0 0.00 0.00 0.00 83 1017.3
20260502121052 37 275 4.0 6.0 0.00 0.00 0.00 82 1017.3
20260502120947 37 329 3.0 6.0 0.00 0.00 0.00 83 1017.3
20260502120841 37 258 1.0 6.0 0.00 0.00 0.00 83 1017.3
20260502120735 36 335 4.0 6.0 0.00 0.00 0.00 84 1017.3
20260502120709 36 315 3.0 6.0 0.00 0.00 0.00 84 1017.7
20260502120629 36 311 2.0 6.0 0.00 0.00 0.00 84 1017.7
20260502120524 36 303 1.0 3.0 0.00 0.00 0.00 85 1017.3
20260502120419 36 306 2.0 3.0 0.00 0.00 0.00 85 1017.7
20260502120312 36 345 3.0 3.0 0.00 0.00 0.00 86 1017.3
20260502120207 35 283 1.0 3.0 0.00 0.00 0.00 86 1017.7
20260502120110 35 298 1.0 3.0 0.00 0.00 0.00 86 1017.7
20260502115851 35 303 0.0 0.0 0.00 0.00 0.00 87 1017.3
20260502115745 35 19 0.0 0.0 0.00 0.00 0.00 87 1017.3
20260502115657 35 320 0.0 0.0 0.00 0.00 0.00 88 1017.3
20260502115637 35 356 0.0 0.0 0.00 0.00 0.00 88 1017.3
20260502115531 35 311 0.0 0.0 0.00 0.00 0.00 88 1017.7
20260502115425 34 328 0.0 0.0 0.00 0.00 0.00 88 1017.7
20260502115320 34 311 0.0 0.0 0.00 0.00 0.00 88 1017.7
20260502115215 34 335 0.0 0.0 0.00 0.00 0.00 88 1017.7
20260502115149 34 335 0.0 0.0 0.00 0.00 0.00 89 1017.7
20260502115108 34 343 0.0 0.0 0.00 0.00 0.00 89 1017.7
20260502115004 34 336 0.0 0.0 0.00 0.00 0.00 89 1017.7
20260502114858 33 335 0.0 0.0 0.00 0.00 0.00 89 1017.7
20260502114752 33 345 0.0 0.0 0.00 0.00 0.00 89 1017.3
20260502114641 33 340 0.0 0.0 0.00 0.00 0.00 89 1017.7
20260502114535 33 344 0.0 0.0 0.00 0.00 0.00 89 1017.7
20260502114429 33 347 0.0 0.0 0.00 0.00 0.00 89 1017.3
20260502114324 33 339 0.0 0.0 0.00 0.00 0.00 89 1017.3
20260502114219 33 341 0.0 0.0 0.00 0.00 0.00 89 1017.7
20260502114130 33 347 0.0 0.0 0.00 0.00 0.00 89 1017.7
20260502114113 33 334 0.0 0.0 0.00 0.00 0.00 89 1017.3
20260502114007 33 333 0.0 0.0 0.00 0.00 0.00 89 1017.7
20260502113901 33 337 0.0 0.0 0.00 0.00 0.00 89 1017.3
20260502113756 33 344 0.0 0.0 0.00 0.00 0.00 89 1017.7
20260502113650 33 327 0.0 0.0 0.00 0.00 0.00 89 1017.7
20260502113622 33 327 0.0 0.0 0.00 0.00 0.00 89 1017.3
20260502113543 33 326 0.0 0.0 0.00 0.00 0.00 89 1017.3
20260502113437 33 336 0.0 0.0 0.00 0.00 0.00 89 1017.3
20260502113331 33 336 0.0 0.0 0.00 0.00 0.00 89 1017.3
20260502113226 33 336 0.0 0.0 0.00 0.00 0.00 89 1017.7
20260502113120 33 336 0.0 0.0 0.00 0.00 0.00 89 1017.7
20260502113015 33 336 0.0 0.0 0.00 0.00 0.00 89 1017.3
20260502112910 33 336 0.0 0.0 0.00 0.00 0.00 89 1017.3
20260502112804 33 336 0.0 0.0 0.00 0.00 0.00 89 1017.3
20260502112658 33 336 0.0 0.0 0.00 0.00 0.00 89 1017.3
20260502112610 33 336 0.0 0.0 0.00 0.00 0.00 89 1017.3
20260502112552 33 336 0.0 0.0 0.00 0.00 0.00 89 1017.3
20260502112447 33 336 0.0 0.0 0.00 0.00 0.00 89 1017.3
20260502112340 33 336 0.0 0.0 0.00 0.00 0.00 89 1017.3
20260502112235 33 336 0.0 0.0 0.00 0.00 0.00 89 1017.3
20260502112103 33 336 0.0 0.0 0.00 0.00 0.00 89 1017.3
20260502112024 33 336 0.0 0.0 0.00 0.00 0.00 89 1017.3
20260502111918 33 336 0.0 0.0 0.00 0.00 0.00 89 1017.3
20260502111814 32 336 0.0 0.0 0.00 0.00 0.00 89 1017.3
20260502111717 32 336 0.0 0.0 0.00 0.00 0.00 89 1017.3
20260502111602 32 337 0.0 0.0 0.00 0.00 0.00 89 1017.3
20260502111454 32 337 0.0 0.0 0.00 0.00 0.00 89 1017.3
20260502111349 32 341 0.0 0.0 0.00 0.00 0.00 89 1017.3
20260502111244 32 341 0.0 0.0 0.00 0.00 0.00 89 1017.3
20260502111139 32 341 0.0 0.0 0.00 0.00 0.00 89 1017.3
20260502111049 32 341 0.0 0.0 0.00 0.00 0.00 89 1017.3
20260502111032 32 342 0.0 0.0 0.00 0.00 0.00 89 1017.3
20260502110926 32 342 0.0 0.0 0.00 0.00 0.00 89 1017.3
20260502110820 32 3 0.0 0.0 0.00 0.00 0.00 89 1017.3
20260502110715 32 3 0.0 0.0 0.00 0.00 0.00 89 1017.3
20260502110609 32 6 0.0 0.0 0.00 0.00 0.00 89 1017.3
20260502110543 32 5 0.0 0.0 0.00 0.00 0.00 89 1017.3
20260502110504 32 6 0.0 0.0 0.00 0.00 0.00 89 1016.9
20260502110358 31 6 0.0 0.0 0.00 0.00 0.00 89 1017.3
20260502110252 32 8 0.0 0.0 0.00 0.00 0.00 89 1017.3
20260502110147 32 8 0.0 0.0 0.00 0.00 0.00 89 1017.3
20260502110041 32 8 0.0 0.0 0.00 0.00 0.00 89 1017.3
20260502105935 32 8 0.0 0.0 0.00 0.00 0.00 89 1017.3
20260502105830 32 8 0.0 0.0 0.00 0.00 0.00 89 1017.3
20260502105724 32 8 0.0 0.0 0.00 0.00 0.00 89 1017.3
20260502105618 32 8 0.0 0.0 0.00 0.00 0.00 89 1017.3
20260502105530 32 8 0.0 0.0 0.00 0.00 0.00 89 1017.3
20260502105513 32 8 0.0 0.0 0.00 0.00 0.00 89 1017.3
20260502105406 32 13 0.0 0.0 0.00 0.00 0.00 89 1017.3
20260502105302 32 35 0.0 0.0 0.00 0.00 0.00 89 1017.3
20260502105156 32 36 0.0 0.0 0.00 0.00 0.00 89 1017.3
20260502105050 32 49 0.0 0.0 0.00 0.00 0.00 89 1017.3
20260502105023 32 62 0.0 0.0 0.00 0.00 0.00 89 1017.3
20260502104945 32 64 0.0 0.0 0.00 0.00 0.00 89 1017.3
20260502104839 32 67 0.0 0.0 0.00 0.00 0.00 89 1017.3
20260502104733 32 68 0.0 0.0 0.00 0.00 0.00 89 1017.3
20260502104627 32 83 0.0 0.0 0.00 0.00 0.00 89 1016.9
20260502104521 32 96 0.0 0.0 0.00 0.00 0.00 89 1016.9
20260502104415 32 123 0.0 0.0 0.00 0.00 0.00 89 1016.9
20260502104310 32 126 0.0 0.0 0.00 0.00 0.00 89 1017.3
20260502104205 32 134 0.0 0.0 0.00 0.00 0.00 88 1017.3
20260502104050 32 135 0.0 0.0 0.00 0.00 0.00 88 1017.3
20260502104013 32 135 0.0 0.0 0.00 0.00 0.00 88 1016.9
20260502103944 32 135 0.0 0.0 0.00 0.00 0.00 88 1016.9
20260502103838 32 135 0.0 0.0 0.00 0.00 0.00 88 1016.9
20260502103734 32 135 0.0 0.0 0.00 0.00 0.00 88 1017.3
20260502103628 32 135 0.0 0.0 0.00 0.00 0.00 88 1017.3
20260502103541 32 135 0.0 0.0 0.00 0.00 0.00 87 1017.3
20260502103526 32 135 0.0 0.0 0.00 0.00 0.00 88 1017.3
20260502103522 32 135 0.0 0.0 0.00 0.00 0.00 88 1017.3
20260502103513 32 135 0.0 0.0 0.00 0.00 0.00 88 1017.3
20260502103248 32 135 0.0 0.0 0.00 0.00 0.00 88 1016.9
20260502103240 32 135 0.0 0.0 0.00 0.00 0.00 88 1016.9
20260502103017 32 135 0.0 0.0 0.00 0.00 0.00 88 1017.3
20260502103013 32 135 0.0 0.0 0.00 0.00 0.00 88 1017.3
20260502103005 32 135 0.0 0.0 0.00 0.00 0.00 87 1017.3
20260502102956 32 135 0.0 0.0 0.00 0.00 0.00 87 1017.3
20260502102731 32 135 0.0 0.0 0.00 0.00 0.00 87 1017.3
20260502102722 32 135 0.0 0.0 0.00 0.00 0.00 87 1017.3
20260502102456 32 135 0.0 0.0 0.00 0.00 0.00 87 1017.3
20260502102452 32 135 0.0 0.0 0.00 0.00 0.00 87 1016.9
20260502102444 32 135 0.0 0.0 0.00 0.00 0.00 87 1017.3
20260502102223 32 135 0.0 0.0 0.00 0.00 0.00 87 1016.9
20260502102215 32 135 0.0 0.0 0.00 0.00 0.00 87 1016.9
20260502102206 32 135 0.0 0.0 0.00 0.00 0.00 87 1017.3
20260502101856 32 135 0.0 0.0 0.00 0.00 0.00 87 1017.3
20260502101751 32 135 0.0 0.0 0.00 0.00 0.00 87 1016.9
20260502101646 33 135 0.0 0.0 0.00 0.00 0.00 87 1016.9
20260502101540 33 135 0.0 0.0 0.00 0.00 0.00 87 1016.9
20260502101523 34 135 0.0 0.0 0.00 0.00 0.00 85 1017.3
20260502101518 34 135 0.0 0.0 0.00 0.00 0.00 85 1016.9
20260502101508 33 135 0.0 0.0 0.00 0.00 0.00 86 1017.3
20260502101500 33 135 0.0 0.0 0.00 0.00 0.00 86 1016.9
20260502101238 33 135 0.0 0.0 0.00 0.00 0.00 86 1016.9
20260502101230 33 135 0.0 0.0 0.00 0.00 0.00 86 1016.9
20260502101221 33 135 0.0 0.0 0.00 0.00 0.00 86 1016.9
20260502100951 33 135 0.0 0.0 0.00 0.00 0.00 86 1016.9
20260502100942 33 135 0.0 0.0 0.00 0.00 0.00 86 1016.9
20260502100723 33 135 0.0 0.0 0.00 0.00 0.00 86 1016.9
20260502100714 33 135 0.0 0.0 0.00 0.00 0.00 86 1016.9
20260502100443 33 135 0.0 0.0 0.00 0.00 0.00 85 1016.9
20260502100439 33 135 0.0 0.0 0.00 0.00 0.00 85 1016.9
20260502100430 33 135 0.0 0.0 0.00 0.00 0.00 85 1016.9
20260502100409 33 135 0.0 0.0 0.00 0.00 0.00 85 1016.9
20260502100400 34 135 0.0 0.0 0.00 0.00 0.00 85 1016.9
20260502100350 34 135 0.0 0.0 0.00 0.00 0.00 85 1017.3
20260502091335 35 135 0.0 0.0 0.00 0.00 0.00 83 1016.6
20260502091326 35 135 0.0 0.0 0.00 0.00 0.00 83 1016.9
20260502091318 35 135 0.0 0.0 0.00 0.00 0.00 83 1016.9
20260502091055 35 135 0.0 0.0 0.00 0.00 0.00 83 1016.9
20260502091046 35 135 0.0 0.0 0.00 0.00 0.00 83 1016.9
20260502090824 35 135 0.0 0.0 0.00 0.00 0.00 83 1016.9
20260502090816 35 135 0.0 0.0 0.00 0.00 0.00 83 1016.9
20260502090555 35 135 0.0 0.0 0.00 0.00 0.00 83 1016.9
20260502090551 35 135 0.0 0.0 0.00 0.00 0.00 83 1016.9
20260502090543 35 135 0.0 0.0 0.00 0.00 0.00 83 1016.9
20260502090534 35 135 0.0 0.0 0.00 0.00 0.00 83 1016.9
20260502090312 35 135 0.0 0.0 0.00 0.00 0.00 83 1016.6
20260502090304 35 135 0.0 0.0 0.00 0.00 0.00 83 1016.9
20260502071500 36 124 0.0 0.0 0.00 0.00 0.00 83 1016.6
20260502071354 36 124 0.0 0.0 0.00 0.00 0.00 83 1016.9
20260502071248 36 124 0.0 0.0 0.00 0.00 0.00 83 1016.6
20260502071142 36 124 0.0 0.0 0.00 0.00 0.00 83 1016.6
20260502071037 36 124 0.0 0.0 0.00 0.00 0.00 83 1016.6
20260502070932 36 124 0.0 0.0 0.00 0.00 0.00 83 1016.3
20260502070826 36 124 0.0 0.0 0.00 0.00 0.00 83 1016.6
20260502070720 35 123 0.0 0.0 0.00 0.00 0.00 83 1016.6
20260502070648 35 124 0.0 0.0 0.00 0.00 0.00 82 1016.9
20260502070642 36 124 0.0 0.0 0.00 0.00 0.00 83 1016.9
20260502070638 35 124 0.0 0.0 0.00 0.00 0.00 83 1016.6
20260502070623 36 124 0.0 0.0 0.00 0.00 0.00 83 1016.9
20260502070615 36 124 0.0 0.0 0.00 0.00 0.00 83 1016.9
20260502070345 36 124 0.0 0.0 0.00 0.00 0.00 83 1016.9
20260502070336 36 124 0.0 0.0 0.00 0.00 0.00 83 1016.9
20260502070327 36 124 0.0 0.0 0.00 0.00 0.00 83 1016.6
20260502070041 36 124 0.0 0.0 0.00 0.00 0.00 83 1016.9
20260502065821 36 124 0.0 0.0 0.00 0.00 0.00 83 1016.6
20260502065813 36 124 0.0 0.0 0.00 0.00 0.00 83 1016.6
20260502065543 36 124 0.0 0.0 0.00 0.00 0.00 83 1016.6
20260502065535 36 124 0.0 0.0 0.00 0.00 0.00 83 1016.6
20260502065314 36 124 0.0 0.0 0.00 0.00 0.00 83 1016.6
20260502065306 36 124 0.0 0.0 0.00 0.00 0.00 83 1016.6
20260502065257 36 124 0.0 0.0 0.00 0.00 0.00 83 1016.9
20260502065030 36 124 0.0 0.0 0.00 0.00 0.00 83 1016.9
20260502065026 36 124 0.0 0.0 0.00 0.00 0.00 83 1016.9
20260502065017 36 124 0.0 0.0 0.00 0.00 0.00 83 1016.9
20260502064757 36 124 0.0 0.0 0.00 0.00 0.00 83 1016.9
20260502064748 36 124 0.0 0.0 0.00 0.00 0.00 83 1016.9
20260502064740 36 124 0.0 0.0 0.00 0.00 0.00 83 1016.9
20260502064519 35 124 0.0 0.0 0.00 0.00 0.00 82 1016.9
20260502064510 35 124 0.0 0.0 0.00 0.00 0.00 82 1016.9
20260502064250 35 123 0.0 0.0 0.00 0.00 0.00 82 1016.9
20260502064245 35 124 0.0 0.0 0.00 0.00 0.00 82 1016.9
20260502064236 35 124 0.0 0.0 0.00 0.00 0.00 82 1016.9
20260502064221 35 124 0.0 0.0 0.00 0.00 0.00 82 1016.9
20260502063958 35 124 0.0 0.0 0.00 0.00 0.00 83 1016.9
20260502063937 35 124 0.0 0.0 0.00 0.00 0.00 82 1016.9
20260502063714 35 123 0.0 0.0 0.00 0.00 0.00 82 1016.9
20260502063706 35 123 0.0 0.0 0.00 0.00 0.00 82 1016.9
20260502063430 35 123 0.0 0.0 0.00 0.00 0.00 82 1016.9
20260502063326 35 123 0.0 0.0 0.00 0.00 0.00 82 1016.9
20260502063244 35 123 0.0 0.0 0.00 0.00 0.00 82 1016.9
20260502063240 35 123 0.0 0.0 0.00 0.00 0.00 82 1016.9
20260502063232 35 123 0.0 0.0 0.00 0.00 0.00 82 1016.9
20260502063011 35 123 0.0 0.0 0.00 0.00 0.00 82 1016.9
20260502063000 35 123 0.0 0.0 0.00 0.00 0.00 82 1016.9
20260502062956 35 123 0.0 0.0 0.00 0.00 0.00 82 1016.9
20260502062948 35 123 0.0 0.0 0.00 0.00 0.00 82 1016.9
20260502062727 35 123 0.0 0.0 0.00 0.00 0.00 82 1016.9
20260502062706 35 123 0.0 0.0 0.00 0.00 0.00 82 1016.9
20260502062655 35 123 0.0 0.0 0.00 0.00 0.00 82 1016.9
20260502062348 35 123 0.0 0.0 0.00 0.00 0.00 82 1016.9
20260502062231 35 123 0.0 0.0 0.00 0.00 0.00 82 1017.3
20260502062125 35 123 0.0 0.0 0.00 0.00 0.00 83 1017.3
20260502062019 35 123 0.0 0.0 0.00 0.00 0.00 83 1016.9
20260502061914 35 122 0.0 0.0 0.00 0.00 0.00 83 1016.9
20260502061809 35 122 0.0 0.0 0.00 0.00 0.00 83 1016.9
20260502061702 35 122 0.0 0.0 0.00 0.00 0.00 83 1016.9
20260502061556 35 122 0.0 0.0 0.00 0.00 0.00 83 1017.3
20260502061423 35 121 0.0 0.0 0.00 0.00 0.00 83 1017.3
20260502061343 35 120 0.0 0.0 0.00 0.00 0.00 83 1017.3
20260502061237 35 109 0.0 0.0 0.00 0.00 0.00 83 1017.7
20260502061132 35 109 0.0 0.0 0.00 0.00 0.00 82 1017.3
20260502061026 35 108 0.0 0.0 0.00 0.00 0.00 82 1017.3
20260502060920 35 108 0.0 0.0 0.00 0.00 0.00 82 1016.9
20260502060815 35 108 0.0 0.0 0.00 0.00 0.00 82 1016.9
20260502060709 35 108 0.0 0.0 0.00 0.00 0.00 82 1017.3
20260502060601 35 108 0.0 0.0 0.00 0.00 0.00 82 1016.9
20260502060457 35 108 0.0 0.0 0.00 0.00 0.00 82 1017.3
20260502060407 35 108 0.0 0.0 0.00 0.00 0.00 82 1016.9
20260502060350 35 108 0.0 0.0 0.00 0.00 0.00 82 1016.9
20260502060244 35 108 0.0 0.0 0.00 0.00 0.00 82 1016.9
20260502060139 35 108 0.0 0.0 0.00 0.00 0.00 82 1016.9
20260502060033 35 108 0.0 0.0 0.00 0.00 0.00 82 1016.9
20260502055901 35 108 0.0 0.0 0.00 0.00 0.00 82 1017.3
20260502055821 35 108 0.0 0.0 0.00 0.00 0.00 82 1017.3
20260502055715 35 108 0.0 0.0 0.00 0.00 0.00 82 1017.3
20260502055610 35 108 0.0 0.0 0.00 0.00 0.00 82 1017.3